ソーホー彗星

323P/SOHO (2025)

English version
Home page
Updated on March 4, 2025

---------------------------------------------------------------------

・ プロフィール

・ 軌道要素

Epoch 2025 May 5.0 TT = JDT 2460800.5
T 2025 Mar. 14.20597 TT                                 Pike
q   0.0402871            (2000.0)            P               Q
n   0.25491823     Peri.  353.29031     +0.73515750     +0.67577613
a   2.4634029      Node   324.00606     -0.61764436     +0.63515016
e   0.9836457      Incl.    5.23018     -0.27939021     +0.37404666
P   3.87
From 28 observations 2025 Jan. 27-Feb. 8, mean residual 0".3.

・ 星図

・ 光度変化

        H = 21.0  G = 0.15                [   ,-30]  (              〜2025年 2月12日)
        m1 = 24.0 + 5 logΔ + 13.0 log r  [-30, 21]  (2025年 2月12日〜2025年 4月 4日)
        H = 21.0  G = 0.15                [ 21,   ]  (2025年 4月 4日〜              )

---------------------------------------------------------------------

軌道要素はM.P.E.C. 2025-D44に掲載されたものです。
星図はステラナビゲータ Ver.11 (アストロアーツ) で作成したものです。
光度グラフはComet for Windowsで作成したものです。

---------------------------------------------------------------------

Copyright(C) Seiichi Yoshida (comet@aerith.net). All rights reserved.